Zurück zum Katalog

COSMOS 2573

AktivNavigationSSO
NORAD 58614·PAYLOAD·🇷🇺 Russia

Gestartet Dec 21, 2023 von Plesetsk Cosmodrome

Loading…

Nächste Überflüge (nächste 24 Stunden)

TLE

AktuellSource: Space-Track

Epoche: Sep 14, 2026, 14:36 UTC

1 58614U 23201A   26257.60867627  .00002760  00000-0  11234-3 0  9995
2 58614  97.6358 208.7856 0002995  83.3651 276.7928 15.25393843152115

Verfolge COSMOS 2573 in Echtzeit mit AllMySat

Download on the App Store